[[{"header":{"parameterUnit":"m.s-1","parameterCategory":1,"la1":30.2991,"la2":30.254,"lo1":-89.0895,"lo2":-89.0444,"dx":0.0017,"dy":0.0017,"nx":28,"ny":28,"refTime":"2022-11-12T09:00:00:Z","depth":0,"parameterNumber":2,"parameterNumberName":"U-component_of_WINDS"},"data":[0,0,0,0,0,0,0,0,0,0,0,0,0,0,0,0,0,0,0,0,0,0,0,0,0,0,0,0,0,0,0,0,0,0,0,0,0,0,0,0,0,0,0,0,0,0,0,0,0,0,0,0,0,0,0,0,0,0,1.9072,1.9071,0,1.9006,1.9006,1.9005,1.8948,1.8947,1.8946,1.8946,1.8876,1.8875,1.8874,0,0,0,0,0,0,0,0,0,0,0,0,0,1.9149,1.9148,1.9072,1.9071,1.9071,1.9006,1.9006,1.9005,1.8948,1.8947,1.8946,1.8945,1.8877,1.8875,1.8874,0,0,0,0,0,0,0,0,0,0,0,0,0,1.9102,1.9147,1.9072,1.9035,1.903,1.9007,1.9005,1.9004,1.8948,1.8947,1.8946,1.8945,1.8877,1.8876,1.8874,1.8882,0,0,1.8868,1.8867,0,0,0,0,0,0,0,0,1.9105,1.91,1.9041,1.9037,1.9033,1.8984,1.9007,1.8963,1.8948,1.8979,1.8946,1.8945,1.8913,1.8908,1.8898,1.8878,1.8875,1.8868,1.8867,1.8866,1.8865,0,0,0,0,0,0,0,1.9108,1.9102,1.9046,1.904,1.9035,1.9021,1.9013,1.8998,1.8952,1.8976,1.8972,1.8965,1.8911,1.89,1.8896,1.8874,1.8868,1.8866,1.8865,1.8864,1.886,1.8861,0,0,0,0,0,0,1.9118,1.9105,1.9048,1.9044,1.9067,1.902,1.9012,1.9001,1.8952,1.8944,1.8966,1.8963,1.8903,1.8898,1.8893,1.89,1.8866,1.8864,1.8863,1.8859,1.886,1.8861,0,0,0,0,0,0,1.9119,1.9113,1.9051,1.9074,1.9065,1.902,1.9008,1.9,1.8989,1.8944,1.8936,1.8964,1.8902,1.8896,1.8885,1.8897,1.8863,1.8862,1.8858,1.8859,1.8861,1.8914,0,0,0,0,0,0,1.9122,1.9114,1.9116,1.9074,1.9064,1.9044,1.9009,1.8999,1.8986,1.8981,1.894,1.8932,1.8901,1.8889,1.8884,1.8894,1.886,1.8856,1.8858,1.886,1.8911,1.8917,1.8922,0,0,0,0,0,1.9125,1.9133,1.9117,1.911,1.9066,1.9045,1.9039,1.9004,1.8987,1.8989,1.8961,1.8933,1.8897,1.8888,1.8882,1.8892,1.8856,1.8858,1.886,1.8908,1.8915,1.8922,0,0,0,0,0,0,1.9176,1.9127,1.9108,1.9103,1.9079,1.9035,1.9037,1.9012,1.8992,1.8988,1.8945,1.8936,1.8931,1.891,1.8901,1.8898,1.8873,1.8874,1.8911,1.8918,1.8923,1.8928,1.8859,0,0,0,0,0,1.9188,1.9175,1.9132,1.9132,1.9121,1.9081,1.9071,1.9046,1.9019,1.9008,1.8979,1.8954,1.8937,1.8926,1.8908,1.8908,1.8899,1.8912,1.8918,1.8922,1.8924,1.8924,1.8929,1.8869,1.8869,1.8869,0,0,1.9209,1.9181,1.9175,1.9142,1.912,1.9109,1.9073,1.9062,1.9053,1.9006,1.8995,1.8974,1.8942,1.8938,1.8934,1.892,1.8939,1.8925,1.8929,1.8928,1.8926,1.8932,1.8937,1.887,1.887,1.887,0,0,1.9244,1.9221,1.9219,1.9199,1.9167,1.9141,1.9141,1.9102,1.9086,1.9074,1.904,1.9029,1.9,1.898,1.8965,1.8996,1.897,1.8991,1.902,1.9021,1.9026,1.903,1.9041,1.9045,1.8993,1.8993,1.8993,0,1.9275,1.9256,1.922,1.9212,1.9199,1.9158,1.9156,1.9138,1.9102,1.9093,1.9079,1.9043,1.9019,1.901,1.9018,1.9008,1.9006,1.8995,1.9028,1.9032,1.9035,1.9045,1.9049,1.8996,1.8995,1.8995,1.8995,0,1.9297,1.9285,1.9287,1.9255,1.9241,1.9236,1.92,1.9191,1.9168,1.9144,1.9134,1.9104,1.908,1.9076,1.9053,1.9064,1.9057,1.9036,1.901,1.9044,1.9053,1.9057,1.9,1.8999,1.8998,1.8997,0,0,1.9359,1.931,1.9311,1.9296,1.926,1.925,1.9244,1.9221,1.9215,1.9192,1.9186,1.9164,1.9145,1.9129,1.9104,1.9104,1.9132,1.9083,1.9082,1.9093,1.9143,1.9159,1.9165,1.9115,1.9115,1.9116,1.9146,0,1.9388,1.9374,1.9343,1.9339,1.9328,1.9291,1.9286,1.9263,1.9241,1.9229,1.9204,1.919,1.9165,1.9156,1.9155,1.9129,1.9141,1.9126,1.9109,1.9109,1.9117,1.9169,1.9185,1.9215,1.9149,1.915,1.915,0,1.9418,1.94,1.9395,1.9362,1.9356,1.9352,1.9329,1.9318,1.9292,1.9276,1.9261,1.9233,1.9225,1.9202,1.9191,1.9182,1.9173,1.916,1.916,1.9156,1.9131,1.9167,1.9224,1.9228,1.9155,1.9155,1.9155,0,1.9465,1.9439,1.9433,1.9422,1.9382,1.9381,1.9364,1.9337,1.9326,1.9307,1.93,1.928,1.9269,1.9255,1.9223,1.9209,1.9216,1.919,1.9203,1.9204,1.9205,1.9205,1.9261,1.92,1.92,1.92,1.92,0,1.95,1.9499,1.9454,1.9451,1.9449,1.9414,1.9413,1.9393,1.937,1.9362,1.9329,1.9322,1.9281,1.927,1.9246,1.9241,1.9236,1.9223,1.9217,1.9226,1.9228,1.9219,1.9216,1.9201,1.9201,1.9201,1.9201,0,1.9551,1.9521,1.9513,1.9477,1.9468,1.9468,1.9438,1.9433,1.941,1.9401,1.9397,1.9361,1.9347,1.9314,1.9291,1.9275,1.9276,1.9264,1.9285,1.9281,1.9296,1.9295,1.9348,1.9353,1.9289,1.929,1.9291,0,1.9575,1.9574,1.9538,1.9531,1.9517,1.9505,1.9495,1.9461,1.9451,1.9423,1.9423,1.9406,1.9391,1.937,1.9341,1.9324,1.9311,1.9331,1.9308,1.9318,1.9312,1.9312,1.9313,1.9336,1.9337,1.9338,1.9338,0,1.9621,1.9607,1.9593,1.9575,1.9564,1.9547,1.9529,1.9526,1.9487,1.9478,1.9464,1.9452,1.943,1.9414,1.9393,1.9376,1.9351,1.9346,1.9348,1.9357,1.937,1.9364,1.9299,1.9344,1.9344,1.9343,1.9343,1.9343,1.9659,1.9657,1.9632,1.9619,1.9602,1.9587,1.9581,1.9559,1.9546,1.9526,1.9507,1.9495,1.9471,1.944,1.9425,1.9415,1.9403,1.9405,1.9406,1.9407,1.9412,1.9372,1.9411,1.9411,1.9411,1.9411,1.941,0,1.9703,1.9687,1.9675,1.9651,1.9641,1.962,1.96,1.9593,1.9583,1.9563,1.9549,1.9534,1.9519,1.9491,1.9474,1.9472,1.946,1.9468,1.9468,1.9464,1.9424,1.9424,1.9478,1.9478,1.9478,1.9478,1.9478,1.9478,1.9725,1.9721,1.9704,1.9692,1.9675,1.9663,1.9654,1.964,1.9624,1.9608,1.9596,1.9579,1.9556,1.9537,1.9523,1.9515,1.9511,1.9523,1.9511,1.9473,1.9467,1.9461,1.9461,1.9522,1.9522,1.9553,1.9553,1.9553]},{"header":{"parameterUnit":"m.s-1","parameterCategory":1,"la1":30.2991,"la2":30.254,"lo1":-89.0895,"lo2":-89.0444,"dx":0.0017,"dy":0.0017,"nx":28,"ny":28,"refTime":"2022-11-12T09:00:00:Z","depth":0,"parameterNumber":3,"parameterNumberName":"V-component_of_WINDS"},"data":[0,0,0,0,0,0,0,0,0,0,0,0,0,0,0,0,0,0,0,0,0,0,0,0,0,0,0,0,0,0,0,0,0,0,0,0,0,0,0,0,0,0,0,0,0,0,0,0,0,0,0,0,0,0,0,0,0,0,-7.4835,-7.4837,0,-7.5,-7.5002,-7.5004,-7.4964,-7.4961,-7.4957,-7.4954,-7.5117,-7.5124,-7.5131,0,0,0,0,0,0,0,0,0,0,0,0,0,-7.4479,-7.4485,-7.4835,-7.4837,-7.4839,-7.5,-7.5002,-7.5005,-7.4964,-7.496,-7.4957,-7.4953,-7.5114,-7.5123,-7.5132,0,0,0,0,0,0,0,0,0,0,0,0,0,-7.4637,-7.4488,-7.4834,-7.4839,-7.4841,-7.5,-7.5002,-7.5005,-7.4965,-7.496,-7.4956,-7.4951,-7.5111,-7.5122,-7.5133,-7.5296,0,0,-7.5166,-7.5171,0,0,0,0,0,0,0,0,-7.4629,-7.4651,-7.4836,-7.4839,-7.4841,-7.4957,-7.4936,-7.5102,-7.4966,-7.4918,-7.4954,-7.4949,-7.5067,-7.5081,-7.5122,-7.5304,-7.531,-7.5167,-7.5174,-7.5179,-7.5182,0,0,0,0,0,0,0,-7.4618,-7.4643,-7.49,-7.4839,-7.4842,-7.483,-7.4848,-7.4968,-7.5017,-7.4922,-7.4919,-7.494,-7.5067,-7.5112,-7.5126,-7.5313,-7.5167,-7.5177,-7.5183,-7.5188,-7.5637,-7.5642,0,0,0,0,0,0,-7.4605,-7.4634,-7.4895,-7.4905,-7.4721,-7.4841,-7.486,-7.4924,-7.5015,-7.5025,-7.4943,-7.4937,-7.5096,-7.5113,-7.5131,-7.533,-7.5178,-7.5189,-7.5195,-7.5632,-7.5638,-7.5644,0,0,0,0,0,0,-7.4598,-7.4629,-7.4888,-7.4769,-7.4801,-7.4852,-7.4924,-7.493,-7.4975,-7.5032,-7.504,-7.4981,-7.5093,-7.5116,-7.5256,-7.5335,-7.5194,-7.5204,-7.5626,-7.5634,-7.5641,-7.5726,0,0,0,0,0,0,-7.4588,-7.4626,-7.469,-7.4771,-7.4808,-7.5012,-7.4929,-7.4937,-7.4995,-7.4988,-7.5069,-7.5078,-7.5091,-7.524,-7.5267,-7.5347,-7.5212,-7.5619,-7.5629,-7.5639,-7.5717,-7.5736,-7.5753,0,0,0,0,0,-7.4575,-7.4706,-7.4694,-7.4725,-7.4889,-7.5017,-7.5037,-7.5052,-7.5001,-7.5065,-7.5102,-7.5075,-7.5322,-7.5255,-7.5285,-7.5369,-7.5614,-7.5626,-7.5638,-7.5708,-7.5732,-7.5753,0,0,0,0,0,0,-7.4629,-7.4716,-7.4704,-7.4865,-7.4934,-7.501,-7.509,-7.5076,-7.516,-7.5149,-7.5161,-7.518,-7.5324,-7.536,-7.5284,-7.5532,-7.546,-7.5479,-7.5503,-7.5527,-7.5544,-7.5532,-7.5221,0,0,0,0,0,-7.4661,-7.4759,-7.4829,-7.4964,-7.5,-7.504,-7.5095,-7.5101,-7.5172,-7.52,-7.5247,-7.5316,-7.5409,-7.547,-7.5558,-7.5722,-7.5739,-7.5795,-7.5813,-7.5827,-7.5843,-7.5934,-7.5959,-7.5684,-7.5684,-7.5684,0,0,-7.4725,-7.4785,-7.4846,-7.4976,-7.5031,-7.5131,-7.5064,-7.5172,-7.5247,-7.5216,-7.5352,-7.539,-7.5466,-7.562,-7.5689,-7.5654,-7.5923,-7.5843,-7.5854,-7.5862,-7.5949,-7.5975,-7.5998,-7.5692,-7.5691,-7.5689,0,0,-7.4894,-7.4949,-7.5069,-7.5126,-7.521,-7.5236,-7.5265,-7.5344,-7.5368,-7.5505,-7.5485,-7.5572,-7.5732,-7.5788,-7.5838,-7.6031,-7.6009,-7.6059,-7.6154,-7.6241,-7.6263,-7.6282,-7.6352,-7.6376,-7.6074,-7.6075,-7.6075,0,-7.4963,-7.5116,-7.5131,-7.5243,-7.5301,-7.5281,-7.5402,-7.5455,-7.5563,-7.5603,-7.5563,-7.5765,-7.5815,-7.5981,-7.6029,-7.6069,-7.6102,-7.6049,-7.6259,-7.6279,-7.6297,-7.6363,-7.6389,-7.608,-7.608,-7.6079,-7.6079,0,-7.5196,-7.5303,-7.5389,-7.5497,-7.5565,-7.568,-7.5712,-7.5778,-7.5778,-7.5808,-7.5948,-7.6008,-7.611,-7.6149,-7.6149,-7.6317,-7.6293,-7.6256,-7.6184,-7.6328,-7.6391,-7.6416,-7.6088,-7.6086,-7.6085,-7.6083,0,0,-7.5403,-7.5521,-7.5552,-7.5602,-7.5694,-7.5776,-7.589,-7.5992,-7.6049,-7.6124,-7.622,-7.6357,-7.6324,-7.6381,-7.6386,-7.6464,-7.6614,-7.6418,-7.6419,-7.6452,-7.6803,-7.683,-7.6859,-7.66,-7.6605,-7.6609,-7.6796,0,-7.5581,-7.5785,-7.5804,-7.5986,-7.6085,-7.6068,-7.6168,-7.6234,-7.6266,-7.6352,-7.6385,-7.6483,-7.6432,-7.6466,-7.6542,-7.6579,-7.6684,-7.6566,-7.6688,-7.6693,-7.667,-7.6892,-7.6921,-7.7094,-7.6821,-7.6825,-7.6828,0,-7.5815,-7.5901,-7.6095,-7.6176,-7.6218,-7.6307,-7.6403,-7.6486,-7.6561,-7.6579,-7.6643,-7.6639,-7.6756,-7.6679,-7.684,-7.6759,-7.681,-7.6836,-7.6843,-7.6855,-7.6769,-7.691,-7.715,-7.7176,-7.6866,-7.6863,-7.6861,0,-7.5948,-7.6111,-7.6249,-7.6292,-7.6389,-7.6453,-7.6496,-7.6567,-7.6627,-7.671,-7.6749,-7.6843,-7.6895,-7.6967,-7.6988,-7.6931,-7.7148,-7.7074,-7.7165,-7.7165,-7.7211,-7.7208,-7.7464,-7.7244,-7.7244,-7.7243,-7.7243,0,-7.6144,-7.6264,-7.631,-7.6395,-7.6528,-7.6547,-7.6678,-7.6717,-7.678,-7.6871,-7.6861,-7.6946,-7.6969,-7.7058,-7.7075,-7.7205,-7.7228,-7.7244,-7.7248,-7.7246,-7.7244,-7.7279,-7.7268,-7.725,-7.7248,-7.7247,-7.7246,0,-7.6314,-7.6351,-7.65,-7.6581,-7.6604,-7.6699,-7.6767,-7.6848,-7.6878,-7.6993,-7.7021,-7.7068,-7.7173,-7.7201,-7.7325,-7.7337,-7.749,-7.7482,-7.7466,-7.7466,-7.7556,-7.7548,-7.7844,-7.7883,-7.7637,-7.764,-7.7642,0,-7.6438,-7.653,-7.6622,-7.6684,-7.6731,-7.6829,-7.6892,-7.6915,-7.698,-7.7074,-7.7144,-7.7247,-7.7331,-7.7498,-7.7542,-7.7637,-7.7631,-7.7728,-7.7645,-7.7641,-7.7633,-7.7628,-7.7637,-7.7744,-7.7747,-7.7749,-7.775,0,-7.6653,-7.6667,-7.676,-7.6859,-7.6936,-7.7014,-7.7089,-7.714,-7.7172,-7.7246,-7.7355,-7.742,-7.7549,-7.7652,-7.7748,-7.779,-7.7776,-7.7777,-7.7803,-7.7802,-7.7789,-7.7798,-7.751,-7.7769,-7.7768,-7.7766,-7.7765,-7.7764,-7.6804,-7.6886,-7.6965,-7.7068,-7.7128,-7.7199,-7.728,-7.7322,-7.7413,-7.7522,-7.7529,-7.7646,-7.7719,-7.7848,-7.7896,-7.7987,-7.7958,-7.7996,-7.8005,-7.8014,-7.8023,-7.7775,-7.8004,-7.8004,-7.8003,-7.8003,-7.8003,0,-7.702,-7.707,-7.7166,-7.7273,-7.7355,-7.7337,-7.742,-7.7489,-7.7593,-7.7664,-7.7748,-7.7873,-7.7973,-7.8026,-7.8126,-7.8188,-7.8184,-7.8214,-7.8209,-7.8219,-7.8043,-7.801,-7.8215,-7.8215,-7.8215,-7.8215,-7.8215,-7.8215,-7.7142,-7.728,-7.7303,-7.747,-7.7519,-7.7637,-7.7685,-7.7751,-7.7808,-7.7949,-7.8033,-7.8068,-7.8132,-7.8236,-7.8327,-7.834,-7.8377,-7.841,-7.8419,-7.8253,-7.8231,-7.8211,-7.8181,-7.8418,-7.8418,-7.8588,-7.859,-7.8591]}]]